Lincoln Laboratory Near-Earth Asteroid Research project
軌道要素
Epoch 2008 May 14.0 TT = JDT 2454600.5
T 2008 June 2.60994 TT MPCW
q 3.1369803 (2000.0) P Q
n 0.12182483 Peri. 196.41559 +0.98750911 +0.15623247
a 4.0300660 Node 154.56908 -0.13868650 +0.92339680
e 0.2216057 Incl. 2.72621 -0.07477843 +0.35061342
P 8.09
From 53 observations 2008 Sept. 2-2016 Aug. 30, mean residual 0".6.